Regional Weather Roundup
Issued by NWS

Home | Current Version | Previous Version | Text Only | Print | Product List | Glossary On
Versions: 1 2 3 4 5 6 7 8 9 10 11 12 13 14 15 16 17 18 19 20 21 22 23 24 25 26 27 28 29 30 31 32 33 34 35 36 37 38 39 40 41 42 43 44 45 46 47 48 49 50
372
ASUS44 KFWD 061015
RWRTX
NORTH TEXAS HOURLY WEATHER ROUNDUP
NATIONAL WEATHER SERVICE FORT WORTH TX
400 AM CST TUE DEC 06 2016

NOTE: "FAIR" INDICATES FEW OR NO CLOUDS BELOW 12,000 FEET WITH NO
SIGNIFICANT WEATHER AND/OR OBSTRUCTIONS TO VISIBILITY.

TXZ118-119-061100-
DALLAS/FORT WORTH METROPLEX

CITY           SKY/WX    TMP DP  RH WIND       PRES   REMARKS
DFW AIRPORT    CLOUDY    50  48  93 CALM      29.74R
DALLAS LOVE    CLOUDY    50  48  93 SE5       29.75R
FTW MEACHAM    CLOUDY    50  47  89 SW5       29.74R
DAL-EXECUTIVE  CLOUDY    50  49  96 S5        29.73R
FTW-ALLIANCE   CLOUDY    50  47  89 CALM      29.74R
FTW-NAS-JRB    CLOUDY    50  48  93 S6        29.74R
FTW-SPINKS     CLOUDY    49  47  94 S5        29.74S FOG
ARLINGTON      CLOUDY    50  48  93 S7        29.73F
GRAND PRAIRIE  CLOUDY    49  49 100 S3        29.75R
ADDISON        CLOUDY    50  50 100 CALM      29.77S
MESQUITE       CLOUDY    48  47  99 CALM      29.76R
LANCASTER      CLOUDY    51  48  92 CALM      29.76R
$$

TXZ091>094-102>105-117-120-121-131>134-061100-
NORTH CENTRAL TEXAS

CITY           SKY/WX    TMP DP  RH WIND       PRES   REMARKS
SHRMAN/DENISON CLOUDY    48  48 100 N6        29.80R FOG
GAINESVILLE    FOG       46  46  98 CALM      29.80R VSB 1/2
BOWIE          FOG       47  47  99 N6        29.76R VSB 1/2
BRIDGEPORT     CLOUDY    47  47 100 CALM      29.75S
DECATUR        CLOUDY    47  47 100 E3        29.74F FOG
DENTON         CLEAR     49  48  97 SE3       29.75R
MCKINNEY       CLOUDY    49  48  97 N5        29.77R FOG
BONHAM         CLOUDY    46  45  93 CALM      29.79R FOG
GREENVILLE     CLOUDY    46  46 100 CALM      29.78R FOG
ROCKWALL       FOG       47  47 100 CALM      29.77R VSB 3/4
TERRELL        CLOUDY    48  46  93 W7        29.77R FOG
WAXAHACHIE     CLOUDY    49  49 100 S5        29.75R
CLEBURNE       FOG       46  46 100 S7        29.74S VSB 1/4
GRANBURY       FOG       48  46  94 SE5       29.74R VSB 1
$$

TXZ083>090-098>101-113>116-127>130-139>142-154-155-061100-
WESTERN NORTH TEXAS

CITY           SKY/WX    TMP DP  RH WIND       PRES   REMARKS
WICHITA FALLS  FOG       44  43  96 NE16      29.79R VSB 1/2 WCI  37
WF-KICKAPOO    FOG       45  45 100 NE10      29.79R VSB 3/4 WCI  40
VERNON         CLOUDY    44  40  88 N17       29.83R WCI  36
ABILENE        CLEAR     50  36  58 W17       29.76R
ABILENE-DYESS  CLEAR     52  33  47 W14       29.76R
BRECKENRIDGE   CLEAR     47  43  84 W6        29.72R
GRAHAM         CLEAR     40  40 100 CALM      29.72R
MINERAL WELLS  FOG       42  42 100 CALM      29.72R VSB 1/2
STEPHENVILLE   CLEAR     44  43  95 CALM      29.73R
COMANCHE       CLEAR     49  45  85 W14G25    29.72S
BROWNWOOD      CLEAR     39  39 100 E3        29.76R
COLEMAN        CLEAR     48  41  74 W10       29.75R
$$

TXZ143>147-156>162-174-175-061100-
CENTRAL TEXAS

CITY           SKY/WX    TMP DP  RH WIND       PRES   REMARKS
WACO           CLEAR     44  44 100 SE7       29.75S
WACO-MCGREGOR  CLEAR     45  44  97 S7        29.75
HILLSBORO      CLOUDY    49  49  99 S8        29.74S FOG
CORSICANA      CLOUDY    50  49  96 S8        29.77R FOG
MEXIA          CLOUDY    48  47  97 S16       29.76S FOG
HEARNE         MOCLDY    49  49  99 SE6       29.80S
CAMERON        CLEAR     48  48  98 S7        29.78S
TEMPLE         FOG       46  45  96 S8        29.76S VSB 1/4
KILLEEN        CLEAR     50  47  90 SW17      29.72S
KILLEEN-SKYLRK CLEAR     45  44  97 SW5       29.75S
FORT HOOD      CLEAR     46  46 100 W5        29.72R
GATESVILLE       N/A     43  43 100 CALM      29.76S
HAMILTON       CLEAR     50  47  89 W15G21    29.73S
LAMPASAS       CLEAR     50  48  93 SW10G17   29.74S
$$

TXZ095>097-106>112-122>126-135>138-148>153-164>167-061100-
EAST TEXAS

CITY           SKY/WX    TMP DP  RH WIND       PRES   REMARKS
PARIS          CLOUDY    46  43  87 NW8       29.79R
SULPHUR SPRNGS CLOUDY    48  48 100 W5        29.80R FOG
MOUNT PLEASANT CLOUDY    47  47 100 N3        29.79R
GILMER         CLOUDY    46  46  97 W3        29.76S
MINEOLA        CLOUDY    48  46  93 W5        29.76R
TYLER          CLOUDY    49  47  93 SW7       29.75S
LONGVIEW       CLOUDY    49  49 100 W3        29.76S
MARSHALL       CLOUDY    46  44  91 CALM      29.79S
ATHENS         CLOUDY    46  46 100 SW5       29.75R
PALESTINE      CLOUDY    50  50 100 S6        29.79S FOG
JACKSONVILLE   CLOUDY    48  48 100 SW7       29.79R
HENDERSON      CLOUDY    48  48 100 SW3       29.78R
CENTER         CLOUDY    51  50  96 W3        29.79S
NACOGDOCHES    CLOUDY    48  46  93 W6        29.78R
LUFKIN         CLOUDY    50  49  96 SW6       29.80R
$$

SUPPLEMENTAL OBSERVATIONS (CENTRAL)

CITY           SKY/WX    TMP DP  RH WIND       PRES   REMARKS
DENISON DAM      N/A     46  43  87 E2          N/A
CADDO GRASSLND   N/A     46  43  87 NW2         N/A
PAT MAYSE LAKE   N/A     45  43  93 NW6         N/A
GREENVILLE       N/A     46  45  93 W5          N/A
CEDAR HILL       N/A     48  46  93 S2          N/A
ATHENS           N/A     48  45  87 SW3         N/A
LAKE LIMESTONE   N/A     48  46  93 S8          N/A
MCGREGOR         N/A     45  43  93 SW3         N/A
TEMPLE           N/A     46  45  93 S7          N/A
$$

SUPPLEMENTAL OBSERVATIONS (WEST)

CITY           SKY/WX    TMP DP  RH WIND       PRES   REMARKS
MILLERS CREEK    N/A     43  41  93 N12G23      N/A  WCI  37
POSSUM KINGDOM   N/A     43  41  93 SE1         N/A
LBJ GRASSLAND    N/A     48  46  93 CALM        N/A
GRANBURY         N/A     46  45  93 SE6         N/A
COMANCHE         N/A     48  43  81 W15G23      N/A
HAMBY            N/A     46  37  71 NW12        N/A
IVIE RESERVOIR   N/A     52  41  66 W14         N/A
COLORADO BEND    N/A     46  43  87 NW2         N/A
$$

SUPPLEMENTAL OBSERVATIONS (EAST)

CITY           SKY/WX    TMP DP  RH WIND       PRES   REMARKS
CLARKSVILLE      N/A     46  45  93 NW5         N/A
TEXARKANA        N/A     46  45  93 CALM        N/A
LINDEN           N/A     46  45  93 W3          N/A
CADDO LAKE       N/A     46  45  93 CALM        N/A
GILMER           N/A     48  45  87 W2          N/A
HENDERSON        N/A     48  45  87 SW5         N/A
LUFKIN           N/A     50  48  93 MISG        N/A
N SABINE NF      N/A     48  46  93 MISG        N/A
S SABINE NF      N/A     48  46  93 S1          N/A
$$

SUPPLEMENTAL OBSERVATIONS ARE A COLLECTION OF AUTOMATED INSTRUMENTS
THAT ARE MAINTAINED BY A VARIETY OF FEDERAL AND STATE AGENCIES.
CERTAIN ELEMENTS...SUCH AS HUMIDITY VALUES AND SUSTAINED WIND
SPEEDS...MAY BE APPROXIMATED.





USA.gov is the U.S. government's official web portal to all federal, state and local government web resources and services.